Location: Windsor
(43.2292°N, 89.3015°W)
Time: 04:34:23
(UTC+00:00)

AO-91 - Visible Passes

Search period start: 29 June 2022 00:00
Search period end: 09 July 2022 00:00
Orbit: 450 x 799 km, 97.7° (Epoch: 28 June)

Date Brightness Start Highest point End Pass type
(mag) Time Alt. Az. Time Alt. Az. Time Alt. Az.
29 Jun ? 05:09:56 10° N 05:13:14 46° WNW 05:13:14 46° WNW visible
30 Jun ? 03:53:21 10° NE 03:54:51 15° E 03:54:51 15° E visible
30 Jun ? 05:28:55 10° N 05:31:51 26° WNW 05:32:06 26° WNW visible
01 Jul ? 04:11:23 10° NE 04:13:42 25° ENE 04:13:42 25° ENE visible
01 Jul ? 05:48:12 10° NNW 05:50:24 16° WNW 05:50:57 16° WNW visible
02 Jul ? 04:29:46 10° NNE 04:32:32 42° ENE 04:32:32 42° ENE visible
03 Jul ? 04:48:21 10° NNE 04:51:23 69° NNE 04:51:23 69° NNE visible
04 Jul ? 05:07:07 10° N 05:10:13 49° WNW 05:10:13 49° WNW visible
05 Jul ? 03:50:38 10° ENE 03:51:48 14° ENE 03:51:48 14° ENE visible
05 Jul ? 05:26:02 10° N 05:28:59 28° WNW 05:29:04 28° WNW visible
06 Jul ? 04:08:33 10° NE 04:10:39 23° ENE 04:10:39 23° ENE visible
06 Jul ? 05:45:14 10° NNW 05:47:31 17° WNW 05:47:54 17° WNW visible
07 Jul ? 04:26:52 10° NNE 04:29:28 38° ENE 04:29:28 38° ENE visible
07 Jul ? 06:05:12 10° NW 06:06:01 11° WNW 06:06:44 10° WNW visible
08 Jul ? 04:45:23 10° NNE 04:48:19 63° NNE 04:48:19 63° NNE visible
